Location: B�retswil
(47.3376°N, 8.8534°E)
Time: 02:50:57
(UTC+00:00)

Ariane Rocket - Pass Details

Date: 03 March 2021
Orbit: 759 x 771 km, 98.7° (Epoch: 12 April)

Event Time Altitude Azimuth Distance (km) Brightness Sun altitude
Exits shadow 18:42:04 22° 124° (SE) 1,640 4.2 -15.9°
Maximum altitude 18:44:54 42° 67° (ENE) 1,102 3.4 -16.4°
Drops below altitude 10° 18:49:41 10° 358° (N) 2,323 5.6 -17.2°
Sets 18:52:06 0° 352° (N) 3,253 6.5 -17.6°
